Location: Newark
(39.6172°N, 96.8533°W)
Time: 06:40:49
(UTC+00:00)

Envisat - Pass Details

Date: 27 January 2020
Orbit: 764 x 766 km, 98.1° (Epoch: 27 February)

Event Time Altitude Azimuth Distance (km) Brightness Sun altitude
Rises 01:09:42 0° 195° (SSW) 3,218 6.6 -17.3°
Reaches altitude 10° 01:12:18 10° 207° (SSW) 2,296 5.9 -17.8°
Maximum altitude 01:16:36 28° 265° (W) 1,426 5.2 -18.7°
Drops below altitude 10° 01:20:55 10° 323° (NW) 2,310 5.8 -19.5°
Sets 01:23:33 0° 335° (NNW) 3,241 6.5 -20.0°
